Погода в Борках

Россия / Новгородская область     58°22′51″N   31°00′27″E
темп.,
°C
ветер,
м/с
пор.,
м/с
влажн.,
%
обл.,
%
осадки,
мм/ч
давл.,
гПа
погр.,
м
14 апреля, ср
ср1400:00+10ссв0196100 1.3 101780
03:00+5с51086100 5.1 1017340
06:00+4ссз4992100 5.3 1017408
09:00+4ссз41090100 8.9 1019493
12:00+4ссз4886100 1.7 1020475
15:00+5с2677100 1.7 1021500
18:00+6св2573100 0.0 1021404
21:00+4ссв2283100 0.0 102321
15 апреля, чт
чт1500:00+3с379087 0.0 1024148
03:00+2ссв4128390 0.0 1025368
06:00+1ссв4128368 0.0 1025387
09:00+4ссв5117475 0.0 1026547
12:00+7ссв695940 0.0 1026949
15:00+9св6948100 0.0 10261335
18:00+8св51052100 0.0 10261179
21:00+6св51262100 0.0 1027678
16 апреля, пт
пт1600:00+5св51170100 0.0 1027654
03:00+4св51172100 0.0 1027547
06:00+3св51173100 0.0 1027483
09:00+4св51168100 0.0 1028508
12:00+8всв6956100 0.0 1028791
15:00+11всв6850100 0.0 10281137
18:00+11всв5949100 0.0 1028952
21:00+8всв41256100 0.0 1029401
17 апреля, сб
сб1700:00+6всв4126634 0.0 1030397
03:00+4св4117436 0.0 1030333
06:00+3св4127754 0.0 1031309
09:00+7всв5106043 0.0 1031449
12:00+11в574041 0.0 10311034
15:00+14в573269 0.0 10311427
18:00+13в473949 0.0 10301196
21:00+8всв386134 0.0 1030148
18 апреля, вс
вс1800:00+6всв39695 0.0 1032187
03:00+4всв38725 0.0 1032146
06:00+3всв27776 0.0 1032129
09:00+8в36595 0.0 1032354
12:00+12в45425 0.0 10321254
15:00+14вюв45365 0.0 10311661
18:00+14в35405 0.0 10301384
21:00+9в36605 0.0 1031103